This demonstration page uses our WeatherBlox Daily Observations layout. Learn more.

Left ArrowRight Arrow

39.12711, -84.51439

Hourly Observations for October 6, 2016

Temp ( °F °C ) Dew Point ( °F °C ) Humidity (%) Winds ( mph kmh ) Pressure ( in mb ) Visibility ( mi km ) Precip ( " mm )
12:53 am 00:53 Clear 62 16.7 62 16.7 100 100 Calm 30.14 1021 7 11 0.00 0.00
1:35 am 01:35 Clear with Mist and Fog 61 16.1 61 16.1 100 100 Calm 30.12 1020 2 3 0.00 0.00
1:43 am 01:43 Clear with Mist and Fog 60 15.6 60 15.6 100 100 Calm 30.15 1021 3 5 0.00 0.00
1:53 am 01:53 Clear with Mist and Fog 61 16.1 61 16.1 100 100 Calm 30.14 1021 3 5 0.00 0.00
2:53 am 02:53 Clear with Mist and Fog 61 16.1 61 16.1 100 100 Calm 30.15 1021 4 6 0.00 0.00
3:12 am 03:12 Clear with Mist and Fog 57 14 57 14 100 100 Calm 30.15 1021 2 2 0.00 0.00
3:28 am 03:28 Clear with Mist and Fog 59 15 59 15 100 100 Calm 30.15 1021 3 5 0.00 0.00
3:53 am 03:53 Clear with Mist and Fog 58 14.4 58 14.4 100 100 Calm 30.14 1021 2 3 0.00 0.00
4:08 am 04:08 Clear with Mist and Fog 58 14.4 58 14.4 100 100 Calm 30.15 1021 2 3 0.00 0.00
4:27 am 04:27 Clear with Mist and Fog 58 14.4 58 14.4 100 100 Calm 30.15 1021 3 5 0.00 0.00
4:53 am 04:53 Clear with Mist and Fog 58 14.4 58 14.4 100 100 Calm 30.14 1021 5 8 0.00 0.00
5:16 am 05:16 Clear with Mist and Fog 55 13 55 13 100 100 Calm 30.15 1021 2 2 0.00 0.00
5:23 am 05:23 Mostly Cloudy with Mist and Fog 56 13.3 56 13.3 100 100 Calm 30.15 1021 1 1 0.00 0.00
5:27 am 05:27 Mostly Clear with Mist and Fog 57 13.9 57 13.9 100 100 Calm 30.15 1021 1 2 0.00 0.00
5:53 am 05:53 Clear with Mist and Fog 57 13.9 57 13.9 100 100 Calm 30.15 1021 1 1 0.00 0.00
5:59 am 05:59 Clear with Mist and Fog 56 13.3 56 13.3 100 100 Calm 30.15 1021 3 4 0.00 0.00
6:06 am 06:06 Clear with Mist and Fog 57 14 57 14 100 100 Calm 30.15 1021 6 10 0.00 0.00
6:45 am 06:45 Mostly Cloudy with Mist and Fog 57 13.9 57 13.9 100 100 Calm 30.18 1022 2 3 0.00 0.00
6:53 am 06:53 Partly Cloudy 58 14.4 58 14.4 100 100 Calm 30.16 1022 10 16 0.00 0.00
7:35 am 07:35 Cloudy 59 15 59 15 100 100 Calm 30.18 1022 7 11 0.00 0.00
7:36 am 07:36 Cloudy 59 15 59 15 100 100 Calm 30.18 1022 10 16 0.00 0.00
7:53 am 07:53 Cloudy 60 15.6 60 15.6 100 100 Calm 30.18 1022 10 16 0.00 0.00
8:53 am 08:53 Mostly Sunny 61 16.1 60 15.6 97 97 Calm 30.19 1022 10 16 0.00 0.00
9:53 am 09:53 Sunny 65 18.3 62 16.7 90 90 Calm 30.20 1023 10 16 0.00 0.00
10:53 am 10:53 Mostly Sunny 70 21.1 61 16.1 73 73 S 6 9 30.21 1023 10 16 0.00 0.00
11:53 am 11:53 Sunny 76 24.4 61 16.1 60 60 VRB 5 7 30.19 1022 10 16 0.00 0.00
12:53 pm 12:53 Sunny 79 26.1 61 16.1 54 54 SSE 7 11 30.19 1022 10 16 0.00 0.00
1:53 pm 13:53 Sunny 81 27.2 61 16.1 51 51 S 7 11 30.16 1021 10 16 0.00 0.00
2:53 pm 14:53 Sunny 82 27.8 61 16.1 49 49 SSE 8 13 30.14 1021 10 16 0.00 0.00
3:53 pm 15:53 Sunny 82 27.8 62 16.7 51 51 S 7 11 30.14 1021 10 16 0.00 0.00
4:53 pm 16:53 Sunny 83 28.3 62 16.7 49 49 Calm 30.13 1020 10 16 0.00 0.00
5:53 pm 17:53 Sunny 81 27.2 62 16.7 53 53 SE 5 7 30.12 1020 10 16 0.00 0.00
6:53 pm 18:53 Sunny 77 25 63 17.2 62 62 E 3 6 30.12 1020 10 16 0.00 0.00
7:53 pm 19:53 Clear 67 19.4 64 17.8 91 91 Calm 30.13 1020 10 16 0.00 0.00
8:53 pm 20:53 Clear 66 18.9 64 17.8 93 93 Calm 30.13 1020 10 16 0.00 0.00
9:53 pm 21:53 Clear 65 18.3 62 16.7 90 90 Calm 30.13 1020 10 16 0.00 0.00
10:53 pm 22:53 Clear 62 16.7 61 16.1 96 96 Calm 30.12 1020 10 16 0.00 0.00
11:53 pm 23:53 Clear with Mist and Fog 61 16.1 61 16.1 100 100 Calm 30.11 1020 6 10 0.00 0.00

Powered by AerisWeather